Volver al catálogo

CZ-6A DEB

ActivoSSO
NORAD 56599·DEBRIS·🇨🇳 China

Lanzado Nov 11, 2022 desde Taiyuan Satellite Launch Center

Loading…

Próximos Pases (próximas 24 horas)

TLE

ActualizadoSource: Space-Track

Época: Sep 11, 2026, 19:04 UTC

1 56599U 22151ADX 26254.79446684  .00001064  00000-0  38031-3 0  9991
2 56599  98.6690 278.0346 0110705 197.1025 162.6416 14.32813041176730

Sigue CZ-6A DEB en tiempo real con AllMySat

Download on the App Store